Back to catalog

STARLINK-32473

AliveCommunicationsVLEO
NORAD 62049·PAYLOAD·🇺🇸 United States

Launched Nov 21, 2024 from Cape Canaveral Space Force Station

Loading…

Next Passes (next 24 hours)

TLE

FreshSource: CelesTrak SupGP

Epoch: Sep 15, 2026, 02:52 UTC

1 62049C 24216T   26258.11993056 -.00015510  00000+0 -56193-3 0  2581
2 62049  42.9998 266.5870 0001288 263.6108 172.7903 15.27577763    13

Track STARLINK-32473 in real time with AllMySat

Download on the App Store